Melbourne Airport, Australia

5:28 AM AEDT on November 24, 2017 (GMT +1100)
Melbourne International

Weather History for YMML - October, 2013

Change the Weather History Date:

Friday, October 18, 2013

  Actual Average Record
Temperature  
Mean Temperature 54 °F -  
Max Temperature 70 °F 66 °F 87 °F (2008)
Min Temperature 39 °F 47 °F 39 °F (1997)
Degree Days  
Heating Degree Days 10    
Growing Degree Days 4 (Base 50)    
Moisture  
Dew Point 34 °F    
Average Humidity 46    
Maximum Humidity 81    
Minimum Humidity 15    
Precipitation  
Precipitation 0.00 in 0.08 in - ()
Sea Level Pressure  
Sea Level Pressure 30.19 in    
Wind  
Wind Speed 15 mph ()    
Max Wind Speed 28 mph    
Max Gust Speed 37 mph    
Visibility 10.7 miles    
Events      
Averages and records for this station are not official NWS values.
T = Trace of Precipitation, MM = Missing Value Source: Averaged Metar Reports

Daily Weather History Graph

Daily Weather History Graph

Search for Another Location

Airport or City:

Trip Planner

Search our weather history database for the weather conditions in past years. The results will help you decide how hot, cold, wet, or windy it might be!

Date:

Astronomy

Oct. 18, 2013 Rise Set
Actual Time 6:31 AM AEDT 7:40 PM AEDT
Civil Twilight 6:04 AM AEDT 8:07 PM AEDT
Nautical Twilight 5:32 AM AEDT 8:39 PM AEDT
Astronomical Twilight 4:59 AM AEDT 9:13 PM AEDT
Moon 6:59 PM AEDT (10/18) 5:47 AM AEDT (10/18)
Length of Visible Light 14h 02m
Length of Day
13h 08m
Waxing Gibbous, 99% of the Moon is Illuminated
Oct 18
Waxing Gibbous
Oct 19
Full
Oct 27
Last Quarter
Nov 3
New
Nov 10
First Quarter

Hourly Weather History & Observations

Time (AEDT) Temp. Windchill Dew Point Humidity Pressure Visibility Wind Dir Wind Speed Gust Speed Precip Events Conditions
12:00 AM 44 °F - 35 °F 60% 30.19 in 19 mi NNW 10.4 mph - -   Partly Cloudy
12:00 AM 44.6 °F 39.2 °F 35.6 °F 71% 30.18 in - NNW 10.4 mph - N/A   Clear
12:30 AM 44.6 °F 38.8 °F 33.8 °F 66% 30.18 in - NNW 11.5 mph - N/A   Clear
1:00 AM 45 °F - 34 °F 54% 30.19 in - NNW 11.5 mph - -  
1:00 AM 44.6 °F 38.8 °F 33.8 °F 66% 30.18 in 6.2 mi NNW 11.5 mph - N/A   Scattered Clouds
1:30 AM 42.8 °F 36.2 °F 33.8 °F 70% 30.18 in 6.2 mi NNW 12.7 mph - N/A   Partly Cloudy
2:00 AM 43 °F - 35 °F 63% 30.18 in - North 12.7 mph - -  
2:00 AM 42.8 °F 36.2 °F 33.8 °F 70% 30.18 in 6.2 mi North 12.7 mph - N/A   Partly Cloudy
2:30 AM 41.0 °F 33.9 °F 35.6 °F 81% 30.15 in - North 12.7 mph - N/A   Clear
3:00 AM 41 °F - 35 °F 71% 30.17 in 19 mi North 13.8 mph - -   Partly Cloudy
3:00 AM 41.0 °F 33.5 °F 35.6 °F 81% 30.15 in - North 13.8 mph - N/A   Clear
3:30 AM 42.8 °F 36.2 °F 35.6 °F 76% 30.15 in - North 12.7 mph - N/A   Clear
4:00 AM 42 °F - 35 °F 70% 30.18 in - North 13.8 mph - -  
4:00 AM 41.0 °F 33.5 °F 35.6 °F 81% 30.18 in - North 13.8 mph - N/A   Clear
4:30 AM 41.0 °F 32.8 °F 33.8 °F 76% 30.18 in - North 16.1 mph - N/A   Clear
5:00 AM 40 °F - 35 °F 74% 30.19 in - North 15.0 mph - -  
5:00 AM 41.0 °F 33.1 °F 33.8 °F 76% 30.18 in - North 15.0 mph - N/A   Clear
5:30 AM 41.0 °F 33.1 °F 33.8 °F 76% 30.18 in - North 15.0 mph - N/A   Clear
6:00 AM 42 °F - 34 °F 64% 30.20 in 19 mi North 15.0 mph - -   Partly Cloudy
6:00 AM 42.8 °F 35.4 °F 33.8 °F 70% 30.18 in - North 15.0 mph - N/A   Clear
6:30 AM 41.0 °F 32.8 °F 33.8 °F 76% 30.18 in - North 16.1 mph - N/A   Clear
7:00 AM 41 °F - 34 °F 68% 30.22 in - North 15.0 mph - -  
7:00 AM 41.0 °F 33.1 °F 33.8 °F 76% 30.21 in - North 15.0 mph - N/A   Clear
7:30 AM 44.6 °F 37.2 °F 35.6 °F 71% 30.18 in - North 17.3 mph - N/A   Clear
8:00 AM 48.2 °F - 35.6 °F 62% 30.21 in - North 17.3 mph - N/A   Clear
8:35 AM 50.0 °F - 37.4 °F 62% 30.21 in - North 18.4 mph 29.9 mph N/A   Clear
9:00 AM 52 °F - 38 °F 47% 30.22 in 19 mi North 16.1 mph - -   Partly Cloudy
9:00 AM 51.8 °F - 37.4 °F 58% 30.21 in - North 16.1 mph - N/A   Clear
9:30 AM 53.6 °F - 37.4 °F 54% 30.21 in - North 17.3 mph - N/A   Clear
10:00 AM 56 °F - 37 °F 37% 30.22 in - North 21.9 mph - -  
10:00 AM 57.2 °F - 37.4 °F 48% 30.21 in 6.2 mi North 21.9 mph - N/A   Partly Cloudy
10:30 AM 57.2 °F - 39.2 °F 51% 30.21 in 6.2 mi North 21.9 mph - N/A   Partly Cloudy
11:00 AM 59 °F - 35 °F 28% 30.22 in - North 25.3 mph - -  
11:00 AM 59.0 °F - 35.6 °F 42% 30.21 in 6.2 mi North 25.3 mph 36.8 mph N/A   Partly Cloudy
11:30 AM 60.8 °F - 35.6 °F 39% 30.21 in 6.2 mi North 26.5 mph - N/A   Partly Cloudy
12:00 PM 63 °F - 36 °F 25% 30.22 in 19 mi North 26.5 mph - -   Partly Cloudy
12:00 PM 62.6 °F - 35.6 °F 37% 30.21 in 6.2 mi North 26.5 mph - N/A   Partly Cloudy
12:30 PM 64.4 °F - 35.6 °F 34% 30.21 in 6.2 mi North 26.5 mph - N/A   Partly Cloudy
12:45 PM 64.4 °F - 35.6 °F 34% 30.21 in 6.2 mi North 24.2 mph 36.8 mph N/A   Partly Cloudy
1:00 PM 65 °F - 34 °F 20% 30.21 in - North 27.6 mph - -  
1:00 PM 64.4 °F - 33.8 °F 32% 30.18 in 6.2 mi North 27.6 mph - N/A   Partly Cloudy
1:30 PM 64.4 °F - 35.6 °F 34% 30.18 in - North 26.5 mph - N/A   Clear
1:43 PM 66.2 °F - 33.8 °F 30% 30.18 in - North 23.0 mph 34.5 mph N/A   Clear
2:00 PM 67 °F - 35 °F 19% 30.20 in - North 26.5 mph - -  
2:00 PM 68.0 °F - 35.6 °F 30% 30.18 in - North 26.5 mph - N/A   Clear
2:21 PM 66.2 °F - 33.8 °F 30% 30.18 in - North 25.3 mph 36.8 mph N/A   Clear
2:30 PM 66.2 °F - 33.8 °F 30% 30.18 in - North 24.2 mph - N/A   Clear
3:00 PM 68.0 °F - 33.8 °F 28% 30.18 in - North 24.2 mph - N/A   Clear
3:30 PM 68.0 °F - 33.8 °F 28% 30.15 in - North 23.0 mph - N/A   Clear
4:00 PM 69 °F - 33 °F 16% 30.16 in - North 21.9 mph - -  
4:00 PM 69.8 °F - 33.8 °F 27% 30.15 in - North 21.9 mph - N/A   Clear
4:30 PM 69.8 °F - 30.2 °F 23% 30.12 in - NNW 20.7 mph 32.2 mph N/A   Clear
5:00 PM 70 °F - 33 °F 15% 30.15 in - North 21.9 mph - -  
5:00 PM 69.8 °F - 33.8 °F 27% 30.12 in - North 21.9 mph - N/A   Clear
5:16 PM 69.8 °F - 30.2 °F 23% 30.15 in - NNW 21.9 mph 33.4 mph N/A   Clear
5:30 PM 68.0 °F - 28.4 °F 23% 30.15 in - North 24.2 mph 35.7 mph N/A   Clear
6:00 PM 68 °F - 32 °F 16% 30.16 in 25 mi North 21.9 mph - -   Partly Cloudy
6:00 PM 68.0 °F - 32.0 °F 26% 30.15 in - North 21.9 mph - N/A   Clear
6:30 PM 68.0 °F - 33.8 °F 28% 30.15 in - North 19.6 mph - N/A   Clear
7:00 PM 65 °F - 33 °F 19% 30.17 in - North 16.1 mph - -  
7:00 PM 66.2 °F - 33.8 °F 30% 30.15 in - North 16.1 mph - N/A   Clear
7:30 PM 62.6 °F - 33.8 °F 34% 30.15 in - North 13.8 mph - N/A   Clear
8:00 PM 61 °F - 34 °F 24% 30.18 in - North 12.7 mph - -  
8:00 PM 60.8 °F - 33.8 °F 36% 30.18 in - North 12.7 mph - N/A   Clear
8:30 PM 57.2 °F - 35.6 °F 44% 30.18 in - North 10.4 mph - N/A   Clear
9:00 PM 59 °F - 33 °F 25% 30.20 in 19 mi North 11.5 mph - -   Partly Cloudy
9:00 PM 59.0 °F - 33.8 °F 39% 30.18 in - North 11.5 mph - N/A   Clear
9:30 PM 57.2 °F - 33.8 °F 41% 30.21 in - North 10.4 mph - N/A   Clear
10:00 PM 56 °F - 33 °F 30% 30.21 in - North 15.0 mph - -  
10:00 PM 57.2 °F - 33.8 °F 41% 30.21 in - North 15.0 mph - N/A   Clear
10:30 PM 53.6 °F - 35.6 °F 51% 30.21 in - North 16.1 mph - N/A   Clear
10:52 PM 55.4 °F - 33.8 °F 44% 30.21 in - North 17.3 mph 31.1 mph N/A   Clear
11:00 PM 55 °F - 34 °F 32% 30.21 in - North 17.3 mph - -  
11:00 PM 55.4 °F - 33.8 °F 44% 30.21 in - North 17.3 mph 31.1 mph N/A   Clear
11:30 PM 55.4 °F - 32.0 °F 41% 30.21 in - North 15.0 mph - N/A   Clear